This is the latest recevied weather packets stored in our database for station/object LU1VZ-13. If no packets are shown the sender has not sent any weather packets the latest 10 day(s).
| Time | Temp. | Humidity | Pressure | Rain* | Wind** | Luminosity | Snow |
|---|---|---|---|---|---|---|---|
| 1778287473 | 15.56° C | 47% | 1027.1 hPa | - | - | - | - |
| 1778286874 | 15.56° C | 48% | 1026.8 hPa | - | - | - | - |
| 1778286273 | 15.56° C | 48% | 1026.6 hPa | - | - | - | - |
| 1778285673 | 15.56° C | 48% | 1026.6 hPa | - | - | - | - |
| 1778285073 | 15.56° C | 49% | 1026.6 hPa | - | - | - | - |
| 1778284473 | 15.56° C | 48% | 1026.4 hPa | - | - | - | - |
| 1778283274 | 15.56° C | 52% | 1026.3 hPa | - | - | - | - |
| 1778282673 | 15.56° C | 54% | 1026.2 hPa | - | - | - | - |
| 1778282073 | 15.56° C | 56% | 1025.9 hPa | - | - | - | - |
| 1778281474 | 15° C | 56% | 1025.8 hPa | - | - | - | - |
| 1778280874 | 15° C | 55% | 1025.8 hPa | - | - | - | - |
| 1778279673 | 15° C | 56% | 1025.7 hPa | - | - | - | - |
| 1778279073 | 14.44° C | 56% | 1025.5 hPa | - | - | - | - |
| 1778278473 | 14.44° C | 53% | 1025.4 hPa | - | - | - | - |
| 1778277873 | 13.89° C | 52% | 1025.6 hPa | - | - | - | - |
| 1778277273 | 13.89° C | 51% | 1025.6 hPa | - | - | - | - |
| 1778276673 | 13.89° C | 51% | 1025.2 hPa | - | - | - | - |
| 1778275473 | 13.89° C | 42% | 1024.7 hPa | - | - | - | - |
| 1778274873 | 13.89° C | 41% | 1024.4 hPa | - | - | - | - |
| 1778274273 | 13.89° C | 40% | 1024.3 hPa | - | - | - | - |
| 1778273674 | 13.89° C | 36% | 1024.3 hPa | - | - | - | - |
| 1778273073 | 13.89° C | 35% | 1024.1 hPa | - | - | - | - |
| 1778272473 | 13.33° C | 34% | 1023.8 hPa | - | - | - | - |
| 1778271873 | 13.89° C | 34% | 1023.7 hPa | - | - | - | - |
| 1778271274 | 13.33° C | 34% | 1023.5 hPa | - | - | - | - |
* Rain since midnight (hover to see other rain measurements)
** Current wind speed in m/s (hover to see current wind gust speed)